Ивановка

Киргизия     42°53′07″N   75°05′00″E
темп.,
°C
ветер,
м/с
пор.,
м/с
влажн.,
%
обл.,
%
осадки,
мм/ч
давл.,
гПа
погр.,
м
15 мая, сб
сб1500:00+7в46865 0.8 102388
03:00+7в33742 0.0 102132
06:00+6в33700 0.0 102123
09:00+14вюв23475 0.0 1019659
12:00+18зсз32354 0.0 10172019
15:00+18с55355 0.0 10172574
18:00+16ссв77468 0.0 1018869
21:00+10вюв227556 0.5 102226
16 мая, вс
вс1600:00+7в57820 1.1 1023108
03:00+6в33740 0.0 102126
06:00+6в44670 0.0 102135
09:00+14юв23412 0.0 1020532
12:00+19юз11270 0.0 10191604
15:00+20з22260 0.0 10172010
18:00+19ссв23385 0.0 10181097
21:00+12всв33530 0.0 102028
17 мая, пн
пн1700:00+11в33390 0.0 101931
03:00+10в33380 0.0 101823
06:00+9в33430 0.0 101925
09:00+18вюв23350 0.0 1018397
12:00+22ссз22230 0.0 10161595
15:00+24зсз32260 0.0 10151957
18:00+23ссз23390 0.0 1015591
21:00+15всв33540 0.0 101727
18 мая, вт
вт1800:00+13в33471 0.0 101721
03:00+13в33380 0.0 101524
06:00+12всв33400 0.0 101419
09:00+20юв12360 0.0 1014363
12:00+24з32300 0.0 10121169
15:00+25з43280 0.0 10111548
18:00+24з563996 0.0 1011532
21:00+17всв22545 0.0 101214
19 мая, ср
ср1900:00+15в33543 0.0 101220
03:00+15всв3253100 0.0 101114
06:00+14всв2252100 0.0 101113
09:00+21юв114143 0.0 1011381
12:00+25зсз333014 0.0 10091305
15:00+26юз4430100 0.0 10082166
18:00+21в564574 0.0 1009304
21:00+16с2260100 0.2 101217